RYR19T EGNT-EGAC

Flight info

Callsign RYR19T
Flight time 0h 47m
Altitude 23000
Route GIRLI P18 TILNI/N0438F250 P18 GASKO P16 RIBEL/N0425F230 P16 CROFT/N0431F240 Y70 KOLID L70 GUNTU Z196 DIGMA M146 ERDUV Z198 MASOP M148 MAGEE
Aircraft B38M/M-SDE1FGHILORVWXY/HB1

Departure

Time 2026-04-26 18:01
Airport Newcastle International Airport (EGNT)

Arrival

Time 2026-04-26 18:48
Airport George Best Belfast City Airport (EGAC)
Time Latitude Longitude Altitude Speed Heading
2026-04-26 17:44 55.03990 -1.70219 265 ft 0 kts 94°
2026-04-26 17:54 55.03992 -1.70248 265 ft 4 kts 96°
2026-04-26 17:54 55.03998 -1.70292 266 ft 4 kts 124°
2026-04-26 17:54 55.04012 -1.70314 266 ft 5 kts 201°
2026-04-26 17:55 55.04018 -1.70310 267 ft 3 kts 224°
2026-04-26 17:58 55.03974 -1.70364 266 ft 11 kts 203°
2026-04-26 17:59 55.03778 -1.70418 265 ft 18 kts 193°
2026-04-26 17:59 55.03649 -1.70443 263 ft 17 kts 192°
2026-04-26 17:59 55.03597 -1.70554 265 ft 9 kts 250°
2026-04-26 17:59 55.03567 -1.70619 265 ft 8 kts 212°
2026-04-26 18:00 55.03522 -1.70640 264 ft 5 kts 192°
2026-04-26 18:00 55.03488 -1.70645 264 ft 6 kts 182°
2026-04-26 18:00 55.03430 -1.70629 265 ft 12 kts 156°
2026-04-26 18:00 55.03396 -1.70480 266 ft 18 kts 71°
2026-04-26 18:01 55.03499 -1.70095 264 ft 69 kts 65°
2026-04-26 18:01 55.03825 -1.68896 263 ft 145 kts 66°
2026-04-26 18:01 55.04283 -1.67190 694 ft 161 kts 66°
2026-04-26 18:01 55.04746 -1.65404 1345 ft 164 kts 66°
2026-04-26 18:02 55.05214 -1.63548 1845 ft 175 kts 71°
2026-04-26 18:02 55.05564 -1.62173 2205 ft 188 kts 65°
2026-04-26 18:02 55.06319 -1.59358 3233 ft 201 kts 64°
2026-04-26 18:02 55.06732 -1.56943 3909 ft 217 kts 94°
2026-04-26 18:03 55.06166 -1.54475 4623 ft 227 kts 137°
2026-04-26 18:03 55.04777 -1.53194 5324 ft 233 kts 175°
2026-04-26 18:03 55.03109 -1.53079 6033 ft 248 kts 185°
2026-04-26 18:03 55.01325 -1.53217 6779 ft 263 kts 185°
2026-04-26 18:04 54.99493 -1.53276 7631 ft 270 kts 183°
2026-04-26 18:04 54.97605 -1.53504 8572 ft 272 kts 198°
2026-04-26 18:04 54.95893 -1.54886 9530 ft 273 kts 212°
2026-04-26 18:05 54.92553 -1.58372 11141 ft 291 kts 213°
2026-04-26 18:05 54.90766 -1.60225 11724 ft 307 kts 212°
2026-04-26 18:05 54.88877 -1.62156 12259 ft 323 kts 212°
2026-04-26 18:05 54.86909 -1.64171 12977 ft 333 kts 212°
2026-04-26 18:06 54.84896 -1.66240 13824 ft 339 kts 212°
2026-04-26 18:06 54.82845 -1.68348 14591 ft 345 kts 212°
2026-04-26 18:06 54.80763 -1.70480 15349 ft 350 kts 212°
2026-04-26 18:06 54.78675 -1.72615 16105 ft 355 kts 212°
2026-04-26 18:07 54.76535 -1.74802 16864 ft 360 kts 212°
2026-04-26 18:07 54.74375 -1.77006 17778 ft 359 kts 212°
2026-04-26 18:07 54.72219 -1.79195 18651 ft 359 kts 211°
2026-04-26 18:07 54.70705 -1.80358 19165 ft 361 kts 199°
2026-04-26 18:08 54.67416 -1.81554 20241 ft 361 kts 192°
2026-04-26 18:08 54.64938 -1.82287 21051 ft 359 kts 192°
2026-04-26 18:08 54.62487 -1.83032 21875 ft 357 kts 193°
2026-04-26 18:08 54.60078 -1.83811 22684 ft 355 kts 193°
2026-04-26 18:09 54.57646 -1.84597 23200 ft 358 kts 193°
2026-04-26 18:09 54.55185 -1.85371 23247 ft 358 kts 193°
2026-04-26 18:09 54.52738 -1.86130 23251 ft 357 kts 193°
2026-04-26 18:09 54.50289 -1.86901 23248 ft 357 kts 193°
2026-04-26 18:10 54.47846 -1.87673 23237 ft 356 kts 193°
2026-04-26 18:10 54.45416 -1.88437 23242 ft 355 kts 193°
2026-04-26 18:10 54.42976 -1.89200 23255 ft 356 kts 193°
2026-04-26 18:10 54.40529 -1.89966 23247 ft 356 kts 193°
2026-04-26 18:11 54.38096 -1.90727 23251 ft 356 kts 193°
2026-04-26 18:11 54.35688 -1.91479 23253 ft 356 kts 193°
2026-04-26 18:11 54.33244 -1.92242 23250 ft 356 kts 193°
2026-04-26 18:11 54.30803 -1.93002 23252 ft 356 kts 193°
2026-04-26 18:12 54.28359 -1.93763 23250 ft 356 kts 193°
2026-04-26 18:12 54.25923 -1.94520 23245 ft 356 kts 193°
2026-04-26 18:12 54.23478 -1.95281 23247 ft 356 kts 194°
2026-04-26 18:12 54.21214 -1.96861 23274 ft 354 kts 217°
2026-04-26 18:13 54.19380 -1.99658 23268 ft 352 kts 229°
2026-04-26 18:13 54.17787 -2.02778 23265 ft 353 kts 231°
2026-04-26 18:13 54.16151 -2.05914 23269 ft 354 kts 227°
2026-04-26 18:13 54.14976 -2.07860 23264 ft 355 kts 224°
2026-04-26 18:14 54.12494 -2.11573 23268 ft 354 kts 223°
2026-04-26 18:14 54.10673 -2.14445 23272 ft 355 kts 225°
2026-04-26 18:14 54.08900 -2.17361 23262 ft 354 kts 225°
2026-04-26 18:14 54.07134 -2.20210 23275 ft 354 kts 224°
2026-04-26 18:15 54.05327 -2.23060 23274 ft 354 kts 224°
2026-04-26 18:15 54.03525 -2.25907 23257 ft 354 kts 224°
2026-04-26 18:15 54.01706 -2.28724 23266 ft 354 kts 217°
2026-04-26 18:15 53.99524 -2.30688 23279 ft 356 kts 204°
2026-04-26 18:16 53.97184 -2.32092 23267 ft 356 kts 199°
2026-04-26 18:16 53.92495 -2.34731 23268 ft 355 kts 203°
2026-04-26 18:16 53.90204 -2.36308 23269 ft 355 kts 204°
2026-04-26 18:17 53.87904 -2.37846 23268 ft 355 kts 202°
2026-04-26 18:17 53.85582 -2.39302 23268 ft 355 kts 202°
2026-04-26 18:17 53.83283 -2.40743 23269 ft 355 kts 202°
2026-04-26 18:17 53.80977 -2.42229 23268 ft 355 kts 203°
2026-04-26 18:18 53.78666 -2.43722 23268 ft 355 kts 202°
2026-04-26 18:18 53.76354 -2.45198 23268 ft 355 kts 202°
2026-04-26 18:18 53.74044 -2.46665 23267 ft 355 kts 202°
2026-04-26 18:18 53.71724 -2.48142 23265 ft 355 kts 202°
2026-04-26 18:19 53.69407 -2.49620 23258 ft 355 kts 203°
2026-04-26 18:19 53.67116 -2.51078 23259 ft 356 kts 203°
2026-04-26 18:19 53.64800 -2.52547 23258 ft 355 kts 202°
2026-04-26 18:19 53.62569 -2.54284 23276 ft 353 kts 218°
2026-04-26 18:20 53.60967 -2.57388 23287 ft 353 kts 243°
2026-04-26 18:20 53.60135 -2.61277 23274 ft 355 kts 255°
2026-04-26 18:20 53.59565 -2.65338 23274 ft 355 kts 256°
2026-04-26 18:20 53.59179 -2.68009 23274 ft 354 kts 254°
2026-04-26 18:21 53.58096 -2.73233 23276 ft 354 kts 246°
2026-04-26 18:21 53.57321 -2.77091 23286 ft 355 kts 261°
2026-04-26 18:21 53.57317 -2.81247 23277 ft 356 kts 275°
2026-04-26 18:21 53.57708 -2.85364 23276 ft 356 kts 278°
2026-04-26 18:22 53.58129 -2.89479 23276 ft 355 kts 276°
2026-04-26 18:22 53.58365 -2.93611 23277 ft 355 kts 271°
2026-04-26 18:22 53.58481 -2.97764 23273 ft 355 kts 271°
2026-04-26 18:22 53.58653 -3.01921 23277 ft 355 kts 273°
2026-04-26 18:23 53.58883 -3.06070 23271 ft 356 kts 274°
2026-04-26 18:23 53.59089 -3.10174 23273 ft 355 kts 272°
2026-04-26 18:23 53.59266 -3.14335 23277 ft 356 kts 272°
2026-04-26 18:23 53.59676 -3.18448 23282 ft 356 kts 283°
2026-04-26 18:24 53.60191 -3.22468 23277 ft 355 kts 278°
2026-04-26 18:24 53.60603 -3.26579 23278 ft 355 kts 278°
2026-04-26 18:24 53.61086 -3.30665 23275 ft 356 kts 280°
2026-04-26 18:24 53.61627 -3.34725 23276 ft 355 kts 281°
2026-04-26 18:25 53.62147 -3.38803 23277 ft 355 kts 279°
2026-04-26 18:25 53.62635 -3.42886 23276 ft 355 kts 279°
2026-04-26 18:25 53.63124 -3.46961 23276 ft 354 kts 279°
2026-04-26 18:25 53.63627 -3.51039 23277 ft 355 kts 280°
2026-04-26 18:26 53.64123 -3.55071 23278 ft 355 kts 279°
2026-04-26 18:26 53.64618 -3.59157 23278 ft 356 kts 279°
2026-04-26 18:26 53.65273 -3.63186 23295 ft 358 kts 293°
2026-04-26 18:26 53.66563 -3.66786 23279 ft 360 kts 304°
2026-04-26 18:27 53.68115 -3.70086 23284 ft 358 kts 307°
2026-04-26 18:27 53.69681 -3.73361 23268 ft 357 kts 305°
2026-04-26 18:27 53.71111 -3.76776 23261 ft 356 kts 301°
2026-04-26 18:27 53.72481 -3.80265 23275 ft 357 kts 302°
2026-04-26 18:28 53.73881 -3.83669 23258 ft 357 kts 303°
2026-04-26 18:28 53.75336 -3.87087 23262 ft 357 kts 303°
2026-04-26 18:28 53.76770 -3.90509 23261 ft 356 kts 303°
2026-04-26 18:28 53.78182 -3.93946 23269 ft 356 kts 302°
2026-04-26 18:29 53.79594 -3.97377 23264 ft 356 kts 303°
2026-04-26 18:29 53.81021 -4.00819 23257 ft 356 kts 303°
2026-04-26 18:29 53.82446 -4.04261 23256 ft 356 kts 303°
2026-04-26 18:29 53.83867 -4.07708 23259 ft 356 kts 303°
2026-04-26 18:30 53.85281 -4.11148 23254 ft 356 kts 303°
2026-04-26 18:30 53.86685 -4.14563 23256 ft 356 kts 303°
2026-04-26 18:30 53.88319 -4.17704 23292 ft 360 kts 322°
2026-04-26 18:30 53.90551 -4.19633 23268 ft 360 kts 339°
2026-04-26 18:31 53.92933 -4.20811 23279 ft 355 kts 343°
2026-04-26 18:31 53.95289 -4.21885 23275 ft 350 kts 341°
2026-04-26 18:31 53.97611 -4.23294 23278 ft 354 kts 335°
2026-04-26 18:31 53.99868 -4.24956 23266 ft 355 kts 335°
2026-04-26 18:32 54.02165 -4.26564 23280 ft 356 kts 337°
2026-04-26 18:32 54.04485 -4.28046 23273 ft 356 kts 338°
2026-04-26 18:32 54.06777 -4.29522 23268 ft 356 kts 337°
2026-04-26 18:32 54.09080 -4.31072 23274 ft 355 kts 336°
2026-04-26 18:33 54.11373 -4.32622 23270 ft 355 kts 337°
2026-04-26 18:33 54.13683 -4.34161 23278 ft 355 kts 337°
2026-04-26 18:33 54.15899 -4.35945 23301 ft 352 kts 322°
2026-04-26 18:33 54.17581 -4.38971 23275 ft 351 kts 303°
2026-04-26 18:34 54.18842 -4.42549 23274 ft 353 kts 298°
2026-04-26 18:34 54.20020 -4.46186 23268 ft 352 kts 300°
2026-04-26 18:34 54.21345 -4.49706 23270 ft 353 kts 305°
2026-04-26 18:34 54.22820 -4.53065 23269 ft 353 kts 306°
2026-04-26 18:35 54.24276 -4.56452 23277 ft 353 kts 304°
2026-04-26 18:35 54.25663 -4.59925 23277 ft 353 kts 303°
2026-04-26 18:35 54.27047 -4.63408 23268 ft 353 kts 304°
2026-04-26 18:35 54.28456 -4.66853 23278 ft 353 kts 304°
2026-04-26 18:36 54.29848 -4.70239 23274 ft 352 kts 304°
2026-04-26 18:36 54.31244 -4.73678 23271 ft 352 kts 304°
2026-04-26 18:36 54.32637 -4.77133 23266 ft 352 kts 304°
2026-04-26 18:36 54.34030 -4.80578 23270 ft 352 kts 304°
2026-04-26 18:37 54.35411 -4.83987 23263 ft 342 kts 304°
2026-04-26 18:37 54.36763 -4.87332 23220 ft 340 kts 304°
2026-04-26 18:37 54.37655 -4.89548 22971 ft 340 kts 304°
2026-04-26 18:37 54.39441 -4.93987 22141 ft 342 kts 304°
2026-04-26 18:38 54.40784 -4.97325 21713 ft 337 kts 303°
2026-04-26 18:38 54.41664 -4.99515 21428 ft 335 kts 303°
2026-04-26 18:38 54.42982 -5.02802 21005 ft 335 kts 303°
2026-04-26 18:38 54.44320 -5.06144 20551 ft 341 kts 303°
2026-04-26 18:39 54.45675 -5.09497 20093 ft 341 kts 304°
2026-04-26 18:39 54.47042 -5.12839 19256 ft 344 kts 304°
2026-04-26 18:39 54.48531 -5.16378 16920 ft 387 kts 304°
2026-04-26 18:39 54.50154 -5.20262 15256 ft 406 kts 306°
2026-04-26 18:40 54.52079 -5.23634 14966 ft 387 kts 317°
2026-04-26 18:40 54.54041 -5.26550 14894 ft 360 kts 318°
2026-04-26 18:40 54.55996 -5.29387 11968 ft 392 kts 318°
2026-04-26 18:40 54.58167 -5.32751 9765 ft 427 kts 315°
2026-04-26 18:41 54.60323 -5.36272 7285 ft 432 kts 316°
2026-04-26 18:41 54.62609 -5.39865 4497 ft 451 kts 317°
2026-04-26 18:41 54.64975 -5.43384 2994 ft 439 kts 323°
2026-04-26 18:41 54.67389 -5.46016 3002 ft 396 kts 329°
2026-04-26 18:42 54.69676 -5.48261 3003 ft 359 kts 329°
2026-04-26 18:42 54.71705 -5.50414 2992 ft 327 kts 325°
2026-04-26 18:42 54.73405 -5.52717 2966 ft 282 kts 318°
2026-04-26 18:42 54.74768 -5.54784 2966 ft 242 kts 319°
2026-04-26 18:43 54.75966 -5.56471 2976 ft 207 kts 321°
2026-04-26 18:43 54.77068 -5.57964 2974 ft 195 kts 321°
2026-04-26 18:43 54.77988 -5.59639 2984 ft 195 kts 292°
2026-04-26 18:43 54.78019 -5.61904 3007 ft 198 kts 249°
2026-04-26 18:44 54.77154 -5.63717 3001 ft 201 kts 221°
2026-04-26 18:44 54.76049 -5.65177 2999 ft 199 kts 219°
2026-04-26 18:44 54.74935 -5.66634 3000 ft 199 kts 219°
2026-04-26 18:44 54.73851 -5.68144 3019 ft 199 kts 224°
2026-04-26 18:45 54.73198 -5.69256 3002 ft 200 kts 227°
2026-04-26 18:45 54.71994 -5.71716 2800 ft 199 kts 232°
2026-04-26 18:45 54.71106 -5.73505 2571 ft 200 kts 231°
2026-04-26 18:45 54.70180 -5.75331 2287 ft 200 kts 231°
2026-04-26 18:46 54.69297 -5.77111 2207 ft 196 kts 232°
2026-04-26 18:46 54.68345 -5.78863 1937 ft 200 kts 228°
2026-04-26 18:46 54.67337 -5.80453 1568 ft 183 kts 221°
2026-04-26 18:46 54.66406 -5.81681 1021 ft 150 kts 218°
2026-04-26 18:47 54.65630 -5.82656 701 ft 129 kts 215°
2026-04-26 18:47 54.64893 -5.83529 538 ft 127 kts 214°
2026-04-26 18:47 54.64185 -5.84398 386 ft 123 kts 215°
2026-04-26 18:47 54.63475 -5.85251 252 ft 127 kts 214°
2026-04-26 18:48 54.62737 -5.86135 107 ft 134 kts 215°
2026-04-26 18:48 54.61985 -5.87042 24 ft 119 kts 214°
2026-04-26 18:48 54.61460 -5.87668 19 ft 64 kts 214°
2026-04-26 18:48 54.61222 -5.87948 22 ft 25 kts 213°
2026-04-26 18:49 54.61153 -5.88000 24 ft 0 kts 181°
2026-04-26 18:49 54.61102 -5.87975 23 ft 10 kts 143°
2026-04-26 18:49 54.61085 -5.87882 26 ft 9 kts 90°
2026-04-26 18:49 54.61117 -5.87765 24 ft 13 kts 39°
2026-04-26 18:50 54.61203 -5.87662 26 ft 16 kts 34°
2026-04-26 18:50 54.61280 -5.87569 25 ft 12 kts 35°
2026-04-26 18:50 54.61344 -5.87492 22 ft 11 kts 35°
2026-04-26 18:50 54.61400 -5.87413 22 ft 10 kts 45°
2026-04-26 18:51 54.61427 -5.87336 23 ft 5 kts 84°
2026-04-26 18:51 54.61425 -5.87303 22 ft 0 kts 102°
2026-04-26 18:51 54.61425 -5.87302 22 ft 0 kts 104°
2026-04-26 18:51 54.61420 -5.87285 23 ft 0 kts 118°
2026-04-26 18:52 54.61410 -5.87262 23 ft 0 kts 124°